GEFSCGP_prec_meanprecacc_036.txt.gz
Total_Precipitation_Accumulation
0.00 0.00 0.00 0.00 0.00 0.00 0.00 0.00 0.00 0.00 0.00 0.00 0.00 0.00 0.00 0.00 0.00 0.00 0.00 0.00 0.01 0.03 0.07 0.16 0.35 0.61 0.82 1.19 1.15 0.82 0.50 0.32 0.22 0.16 0.12 0.10 0.07 0.05 0.04 0.04 0.04 0.06 0.06 0.07
0.00 0.00 0.00 0.00 0.00 0.00 0.00 0.00 0.00 0.00 0.00 0.00 0.00 0.00 0.00 0.00 0.00 0.00 0.00 0.01 0.01 0.03 0.05 0.11 0.24 0.37 0.45 0.53 0.63 0.65 0.60 0.43 0.31 0.26 0.20 0.17 0.13 0.10 0.10 0.12 0.13 0.12 0.12 0.10
0.00 0.00 0.00 0.00 0.00 0.00 0.00 0.00 0.00 0.00 0.00 0.00 0.00 0.00 0.00 0.00 0.00 0.00 0.00 0.01 0.01 0.03 0.05 0.08 0.14 0.24 0.33 0.42 0.52 0.52 0.44 0.35 0.27 0.25 0.22 0.22 0.20 0.19 0.19 0.20 0.18 0.14 0.12 0.12
0.00 0.00 0.00 0.00 0.00 0.00 0.00 0.00 0.00 0.00 0.00 0.00 0.00 0.00 0.00 0.00 0.00 0.01 0.01 0.01 0.02 0.02 0.03 0.07 0.11 0.16 0.25 0.35 0.38 0.34 0.28 0.24 0.20 0.20 0.20 0.20 0.20 0.20 0.20 0.18 0.16 0.13 0.09 0.08
0.00 0.00 0.00 0.00 0.00 0.00 0.00 0.00 0.00 0.00 0.00 0.00 0.00 0.00 0.00 0.00 0.00 0.00 0.01 0.01 0.01 0.02 0.03 0.06 0.09 0.13 0.20 0.25 0.26 0.23 0.18 0.15 0.13 0.13 0.15 0.16 0.17 0.15 0.14 0.10 0.07 0.04 0.02 0.01
0.00 0.00 0.00 0.00 0.00 0.00 0.00 0.00 0.00 0.00 0.00 0.00 0.00 0.00 0.00 0.00 0.00 0.00 0.01 0.01 0.02 0.02 0.03 0.04 0.06 0.09 0.12 0.16 0.17 0.15 0.13 0.13 0.14 0.17 0.18 0.15 0.12 0.08 0.04 0.02 0.01 0.00 0.00 0.00
0.00 0.00 0.00 0.00 0.00 0.00 0.00 0.00 0.00 0.00 0.00 0.00 0.00 0.00 0.00 0.00 0.00 0.00 0.00 0.01 0.02 0.02 0.03 0.05 0.06 0.07 0.09 0.11 0.13 0.13 0.13 0.12 0.10 0.07 0.04 0.03 0.02 0.01 0.00 0.00 0.00 0.00 0.00 0.00
0.00 0.00 0.00 0.00 0.00 0.00 0.00 0.00 0.00 0.00 0.00 0.00 0.00 0.00 0.00 0.00 0.01 0.01 0.02 0.02 0.02 0.02 0.04 0.06 0.08 0.08 0.08 0.09 0.09 0.09 0.07 0.04 0.02 0.01 0.01 0.01 0.00 0.00 0.00 0.00 0.00 0.00 0.00 0.00
0.00 0.00 0.00 0.00 0.00 0.00 0.00 0.00 0.00 0.00 0.00 0.00 0.00 0.00 0.00 0.00 0.01 0.02 0.03 0.05 0.06 0.05 0.06 0.07 0.08 0.08 0.07 0.06 0.05 0.04 0.03 0.02 0.01 0.01 0.01 0.00 0.00 0.00 0.00 0.00 0.01 0.00 0.00 0.00
0.00 0.00 0.00 0.00 0.00 0.00 0.00 0.00 0.00 0.00 0.00 0.00 0.00 0.00 0.01 0.01 0.02 0.02 0.03 0.07 0.08 0.06 0.06 0.07 0.07 0.07 0.05 0.04 0.04 0.03 0.02 0.01 0.01 0.00 0.00 0.00 0.00 0.00 0.01 0.01 0.01 0.01 0.01 0.01
0.00 0.00 0.00 0.00 0.00 0.00 0.00 0.00 0.00 0.00 0.00 0.00 0.00 0.01 0.00 0.01 0.02 0.04 0.06 0.08 0.08 0.07 0.08 0.08 0.06 0.04 0.05 0.04 0.04 0.03 0.02 0.01 0.01 0.01 0.01 0.00 0.00 0.01 0.01 0.01 0.01 0.02 0.02 0.02
0.00 0.00 0.00 0.00 0.00 0.00 0.00 0.00 0.00 0.00 0.00 0.00 0.00 0.01 0.00 0.00 0.02 0.05 0.09 0.12 0.12 0.11 0.10 0.07 0.05 0.04 0.05 0.05 0.04 0.03 0.03 0.03 0.02 0.01 0.01 0.01 0.01 0.01 0.02 0.02 0.02 0.03 0.04 0.04
0.00 0.00 0.00 0.00 0.00 0.00 0.00 0.00 0.00 0.00 0.00 0.00 0.00 0.02 0.01 0.01 0.03 0.05 0.07 0.08 0.09 0.08 0.07 0.05 0.05 0.06 0.07 0.06 0.05 0.05 0.06 0.05 0.04 0.03 0.02 0.02 0.02 0.02 0.03 0.03 0.04 0.05 0.05 0.06
0.00 0.00 0.00 0.00 0.00 0.00 0.00 0.00 0.01 0.01 0.01 0.00 0.01 0.03 0.03 0.06 0.08 0.08 0.10 0.10 0.10 0.09 0.07 0.07 0.08 0.09 0.10 0.10 0.10 0.09 0.08 0.07 0.05 0.03 0.02 0.02 0.02 0.04 0.04 0.05 0.05 0.06 0.06 0.08
0.00 0.00 0.00 0.00 0.00 0.00 0.01 0.01 0.01 0.02 0.02 0.02 0.02 0.05 0.07 0.12 0.14 0.15 0.15 0.14 0.13 0.10 0.09 0.13 0.16 0.17 0.17 0.15 0.12 0.10 0.08 0.05 0.03 0.02 0.02 0.02 0.03 0.05 0.05 0.06 0.06 0.07 0.08 0.08
0.00 0.00 0.00 0.00 0.00 0.00 0.00 0.00 0.01 0.01 0.02 0.02 0.04 0.07 0.10 0.14 0.17 0.18 0.17 0.17 0.16 0.16 0.18 0.21 0.22 0.21 0.18 0.16 0.13 0.09 0.07 0.05 0.03 0.03 0.03 0.03 0.03 0.04 0.06 0.07 0.08 0.10 0.09 0.08
0.00 0.00 0.00 0.00 0.00 0.00 0.00 0.00 0.00 0.01 0.01 0.02 0.05 0.06 0.06 0.09 0.12 0.13 0.14 0.15 0.18 0.21 0.23 0.23 0.21 0.20 0.20 0.19 0.16 0.15 0.11 0.07 0.05 0.04 0.03 0.03 0.03 0.04 0.06 0.07 0.10 0.09 0.08 0.07
0.00 0.00 0.00 0.00 0.01 0.01 0.00 0.00 0.00 0.01 0.02 0.02 0.02 0.03 0.03 0.04 0.07 0.10 0.11 0.14 0.18 0.22 0.22 0.20 0.19 0.21 0.24 0.26 0.23 0.17 0.11 0.07 0.05 0.04 0.03 0.03 0.03 0.05 0.07 0.09 0.09 0.07 0.06 0.06
0.00 0.01 0.03 0.03 0.04 0.03 0.01 0.00 0.01 0.01 0.02 0.01 0.02 0.02 0.02 0.04 0.07 0.09 0.10 0.13 0.18 0.19 0.19 0.20 0.22 0.28 0.32 0.30 0.22 0.15 0.09 0.05 0.03 0.03 0.03 0.03 0.03 0.05 0.05 0.05 0.06 0.06 0.06 0.06
0.02 0.03 0.08 0.11 0.13 0.11 0.04 0.01 0.01 0.01 0.03 0.02 0.02 0.02 0.03 0.05 0.10 0.07 0.07 0.09 0.12 0.14 0.17 0.24 0.32 0.35 0.33 0.25 0.17 0.11 0.06 0.04 0.03 0.03 0.04 0.04 0.03 0.03 0.02 0.03 0.05 0.06 0.06 0.05
0.04 0.06 0.11 0.18 0.26 0.22 0.09 0.05 0.03 0.05 0.05 0.05 0.05 0.07 0.08 0.10 0.13 0.11 0.09 0.10 0.12 0.17 0.24 0.30 0.34 0.30 0.24 0.16 0.11 0.08 0.06 0.05 0.04 0.03 0.03 0.03 0.02 0.01 0.01 0.02 0.05 0.04 0.03 0.02
0.09 0.11 0.13 0.18 0.27 0.27 0.12 0.08 0.09 0.09 0.06 0.07 0.09 0.10 0.13 0.16 0.16 0.15 0.15 0.17 0.20 0.25 0.30 0.29 0.25 0.20 0.12 0.08 0.06 0.06 0.05 0.03 0.02 0.02 0.02 0.01 0.01 0.00 0.00 0.02 0.02 0.02 0.02 0.01
0.20 0.18 0.20 0.24 0.28 0.18 0.09 0.08 0.08 0.08 0.10 0.11 0.15 0.18 0.21 0.26 0.28 0.27 0.27 0.28 0.28 0.27 0.25 0.22 0.16 0.11 0.06 0.03 0.03 0.03 0.02 0.01 0.01 0.02 0.02 0.01 0.00 0.00 0.00 0.01 0.01 0.01 0.01 0.00
0.36 0.24 0.24 0.27 0.26 0.18 0.12 0.08 0.07 0.09 0.12 0.16 0.21 0.24 0.24 0.25 0.24 0.25 0.26 0.27 0.25 0.22 0.17 0.11 0.06 0.04 0.02 0.01 0.01 0.01 0.00 0.00 0.01 0.01 0.01 0.00 0.00 0.00 0.00 0.00 0.00 0.00 0.01 0.01
0.34 0.36 0.35 0.34 0.29 0.23 0.21 0.17 0.15 0.20 0.22 0.25 0.26 0.22 0.20 0.18 0.15 0.12 0.12 0.12 0.11 0.08 0.05 0.03 0.02 0.01 0.00 0.00 0.00 0.00 0.00 0.00 0.00 0.01 0.00 0.00 0.00 0.00 0.00 0.00 0.00 0.00 0.01 0.01
0.22 0.28 0.39 0.47 0.34 0.25 0.28 0.27 0.25 0.25 0.23 0.19 0.16 0.15 0.14 0.13 0.09 0.07 0.05 0.04 0.03 0.02 0.01 0.01 0.00 0.00 0.00 0.00 0.00 0.00 0.00 0.00 0.00 0.00 0.00 0.00 0.00 0.00 0.00 0.00 0.00 0.00 0.00 0.01

GEFSCGP_prec_meanprecacc_042.txt.gz
Total_Precipitation_Accumulation
0.00 0.00 0.00 0.00 0.00 0.00 0.00 0.00 0.00 0.00 0.00 0.00 0.00 0.00 0.00 0.00 0.00 0.00 0.00 0.01 0.01 0.05 0.12 0.18 0.37 0.63 0.84 1.20 1.16 0.82 0.50 0.32 0.23 0.17 0.13 0.11 0.10 0.08 0.07 0.06 0.05 0.06 0.07 0.07
0.00 0.00 0.00 0.00 0.00 0.00 0.00 0.00 0.00 0.00 0.00 0.00 0.00 0.00 0.00 0.00 0.00 0.00 0.00 0.01 0.02 0.06 0.12 0.19 0.28 0.40 0.47 0.55 0.65 0.67 0.62 0.46 0.33 0.28 0.23 0.21 0.17 0.13 0.12 0.12 0.13 0.12 0.12 0.11
0.00 0.00 0.00 0.00 0.00 0.00 0.00 0.00 0.00 0.00 0.00 0.00 0.00 0.00 0.00 0.00 0.00 0.00 0.00 0.01 0.01 0.03 0.08 0.15 0.18 0.25 0.35 0.44 0.57 0.57 0.50 0.40 0.33 0.31 0.27 0.25 0.23 0.21 0.20 0.21 0.19 0.14 0.12 0.12
0.00 0.00 0.00 0.00 0.00 0.00 0.00 0.00 0.00 0.00 0.00 0.00 0.00 0.00 0.00 0.00 0.00 0.01 0.01 0.01 0.02 0.02 0.04 0.08 0.12 0.17 0.26 0.40 0.46 0.42 0.38 0.35 0.32 0.29 0.28 0.27 0.26 0.25 0.23 0.20 0.18 0.14 0.10 0.08
0.00 0.00 0.00 0.00 0.00 0.00 0.00 0.00 0.00 0.00 0.00 0.00 0.00 0.00 0.00 0.00 0.00 0.00 0.01 0.01 0.01 0.02 0.03 0.06 0.09 0.14 0.22 0.30 0.34 0.33 0.30 0.29 0.28 0.27 0.27 0.26 0.25 0.22 0.19 0.13 0.09 0.05 0.03 0.01
0.00 0.00 0.00 0.00 0.00 0.00 0.00 0.00 0.00 0.00 0.00 0.00 0.00 0.00 0.00 0.00 0.00 0.00 0.01 0.01 0.02 0.02 0.03 0.05 0.06 0.10 0.14 0.19 0.24 0.25 0.25 0.27 0.27 0.30 0.32 0.28 0.23 0.17 0.10 0.05 0.03 0.01 0.01 0.00
0.00 0.00 0.00 0.00 0.00 0.00 0.00 0.00 0.00 0.00 0.00 0.00 0.00 0.00 0.00 0.00 0.00 0.00 0.00 0.01 0.02 0.02 0.03 0.05 0.07 0.08 0.10 0.13 0.17 0.20 0.21 0.21 0.19 0.17 0.14 0.12 0.09 0.07 0.05 0.03 0.02 0.01 0.00 0.00
0.00 0.00 0.00 0.00 0.00 0.00 0.00 0.00 0.00 0.00 0.00 0.00 0.00 0.00 0.00 0.00 0.01 0.01 0.02 0.02 0.02 0.02 0.04 0.07 0.08 0.08 0.09 0.10 0.11 0.12 0.11 0.09 0.08 0.07 0.07 0.05 0.04 0.04 0.03 0.03 0.02 0.01 0.01 0.00
0.00 0.00 0.00 0.00 0.00 0.00 0.00 0.00 0.00 0.00 0.00 0.00 0.00 0.00 0.00 0.00 0.01 0.02 0.03 0.05 0.06 0.05 0.06 0.08 0.08 0.08 0.08 0.06 0.06 0.06 0.06 0.05 0.05 0.05 0.05 0.03 0.02 0.02 0.03 0.02 0.01 0.01 0.01 0.00
0.00 0.00 0.00 0.00 0.00 0.00 0.00 0.00 0.00 0.00 0.00 0.00 0.00 0.00 0.01 0.01 0.02 0.02 0.03 0.07 0.08 0.07 0.09 0.09 0.08 0.07 0.06 0.05 0.05 0.05 0.05 0.05 0.05 0.04 0.03 0.03 0.02 0.02 0.02 0.01 0.01 0.01 0.01 0.01
0.00 0.00 0.00 0.00 0.00 0.00 0.00 0.00 0.00 0.00 0.00 0.00 0.00 0.01 0.00 0.01 0.02 0.04 0.07 0.09 0.09 0.12 0.17 0.12 0.08 0.05 0.05 0.05 0.06 0.06 0.06 0.06 0.05 0.05 0.03 0.03 0.03 0.02 0.02 0.02 0.02 0.02 0.02 0.02
0.00 0.00 0.00 0.00 0.00 0.00 0.00 0.00 0.00 0.00 0.00 0.00 0.00 0.01 0.00 0.00 0.02 0.06 0.09 0.13 0.15 0.15 0.17 0.11 0.07 0.05 0.06 0.06 0.06 0.06 0.07 0.07 0.06 0.04 0.04 0.03 0.03 0.03 0.02 0.02 0.02 0.03 0.04 0.04
0.00 0.00 0.00 0.00 0.00 0.00 0.00 0.00 0.00 0.00 0.00 0.00 0.00 0.02 0.01 0.01 0.03 0.05 0.10 0.16 0.18 0.18 0.14 0.08 0.06 0.07 0.08 0.08 0.08 0.09 0.11 0.10 0.07 0.06 0.05 0.04 0.03 0.03 0.04 0.04 0.04 0.05 0.05 0.06
0.00 0.00 0.00 0.00 0.00 0.00 0.00 0.00 0.01 0.01 0.01 0.00 0.01 0.03 0.04 0.06 0.09 0.11 0.17 0.21 0.24 0.27 0.17 0.11 0.10 0.11 0.12 0.13 0.14 0.14 0.13 0.11 0.09 0.07 0.05 0.04 0.05 0.05 0.06 0.06 0.06 0.06 0.07 0.08
0.00 0.00 0.00 0.00 0.00 0.00 0.01 0.01 0.01 0.02 0.02 0.02 0.02 0.05 0.07 0.13 0.17 0.20 0.21 0.23 0.26 0.27 0.22 0.19 0.20 0.20 0.19 0.18 0.16 0.15 0.13 0.11 0.08 0.07 0.06 0.06 0.07 0.08 0.07 0.07 0.08 0.09 0.10 0.10
0.00 0.00 0.00 0.00 0.00 0.00 0.00 0.00 0.01 0.01 0.02 0.03 0.04 0.08 0.10 0.16 0.19 0.20 0.21 0.21 0.22 0.23 0.27 0.29 0.28 0.26 0.23 0.21 0.20 0.18 0.16 0.14 0.12 0.12 0.11 0.10 0.10 0.09 0.10 0.10 0.10 0.13 0.13 0.12
0.00 0.00 0.00 0.00 0.00 0.00 0.00 0.00 0.00 0.01 0.01 0.02 0.05 0.07 0.07 0.10 0.13 0.15 0.17 0.18 0.22 0.27 0.31 0.30 0.26 0.25 0.26 0.28 0.30 0.32 0.29 0.25 0.22 0.20 0.16 0.13 0.11 0.10 0.10 0.10 0.13 0.13 0.11 0.09
0.00 0.00 0.00 0.00 0.01 0.01 0.00 0.00 0.00 0.01 0.02 0.02 0.03 0.03 0.04 0.06 0.09 0.11 0.13 0.16 0.22 0.27 0.27 0.25 0.24 0.27 0.33 0.40 0.43 0.39 0.33 0.28 0.23 0.20 0.15 0.11 0.08 0.08 0.10 0.12 0.12 0.09 0.07 0.07
0.00 0.01 0.03 0.03 0.04 0.03 0.01 0.00 0.01 0.01 0.02 0.01 0.02 0.03 0.03 0.04 0.08 0.10 0.10 0.14 0.20 0.21 0.22 0.25 0.29 0.37 0.46 0.48 0.43 0.37 0.31 0.25 0.20 0.16 0.12 0.08 0.07 0.08 0.08 0.07 0.07 0.07 0.07 0.07
0.02 0.03 0.08 0.11 0.13 0.12 0.08 0.02 0.01 0.01 0.06 0.04 0.03 0.03 0.05 0.07 0.14 0.10 0.08 0.09 0.13 0.16 0.21 0.31 0.42 0.50 0.50 0.44 0.37 0.31 0.25 0.19 0.14 0.11 0.08 0.07 0.06 0.05 0.03 0.04 0.06 0.06 0.06 0.05
0.07 0.08 0.12 0.20 0.29 0.26 0.12 0.05 0.03 0.07 0.10 0.08 0.06 0.08 0.10 0.13 0.15 0.12 0.10 0.11 0.14 0.20 0.29 0.39 0.45 0.44 0.39 0.31 0.25 0.21 0.17 0.13 0.08 0.06 0.06 0.05 0.03 0.02 0.01 0.03 0.05 0.05 0.03 0.03
0.13 0.17 0.19 0.24 0.34 0.35 0.15 0.09 0.11 0.12 0.08 0.09 0.10 0.12 0.15 0.18 0.17 0.16 0.17 0.19 0.23 0.29 0.36 0.37 0.34 0.30 0.23 0.16 0.14 0.13 0.10 0.06 0.03 0.03 0.03 0.02 0.01 0.00 0.01 0.02 0.03 0.02 0.02 0.02
0.21 0.21 0.28 0.33 0.37 0.26 0.12 0.09 0.09 0.09 0.11 0.12 0.16 0.20 0.24 0.27 0.29 0.28 0.29 0.31 0.32 0.31 0.31 0.28 0.22 0.16 0.10 0.07 0.07 0.06 0.04 0.02 0.02 0.02 0.02 0.01 0.01 0.01 0.01 0.02 0.02 0.01 0.01 0.01
0.39 0.26 0.26 0.31 0.32 0.22 0.14 0.09 0.08 0.10 0.13 0.18 0.23 0.27 0.27 0.28 0.26 0.28 0.30 0.31 0.30 0.27 0.22 0.15 0.10 0.07 0.04 0.03 0.02 0.01 0.01 0.01 0.01 0.02 0.01 0.01 0.01 0.01 0.00 0.01 0.01 0.01 0.01 0.01
0.40 0.40 0.40 0.41 0.36 0.27 0.23 0.18 0.16 0.21 0.24 0.27 0.29 0.25 0.23 0.20 0.17 0.16 0.17 0.17 0.16 0.13 0.09 0.06 0.04 0.02 0.01 0.01 0.00 0.00 0.00 0.01 0.01 0.01 0.01 0.00 0.01 0.01 0.01 0.01 0.00 0.01 0.01 0.01
0.27 0.34 0.48 0.57 0.42 0.31 0.32 0.30 0.28 0.29 0.26 0.22 0.19 0.18 0.18 0.16 0.13 0.11 0.10 0.09 0.08 0.06 0.04 0.02 0.02 0.01 0.01 0.00 0.00 0.00 0.00 0.00 0.01 0.01 0.01 0.00 0.00 0.00 0.00 0.01 0.01 0.01 0.00 0.01

GEFSCGP_prec_meanprecacc_048.txt.gz
Total_Precipitation_Accumulation
0.00 0.00 0.00 0.00 0.00 0.00 0.00 0.00 0.00 0.00 0.00 0.00 0.00 0.00 0.00 0.00 0.00 0.00 0.01 0.01 0.02 0.06 0.15 0.30 0.54 0.78 0.95 1.30 1.22 0.86 0.53 0.35 0.26 0.19 0.15 0.14 0.12 0.10 0.10 0.11 0.10 0.10 0.10 0.11
0.00 0.00 0.00 0.00 0.00 0.00 0.00 0.00 0.00 0.00 0.00 0.00 0.00 0.00 0.00 0.00 0.00 0.00 0.00 0.01 0.02 0.06 0.14 0.23 0.40 0.52 0.54 0.61 0.71 0.72 0.68 0.53 0.40 0.35 0.30 0.28 0.24 0.21 0.21 0.22 0.22 0.22 0.21 0.19
0.00 0.00 0.00 0.00 0.00 0.00 0.00 0.00 0.00 0.00 0.00 0.00 0.00 0.00 0.00 0.00 0.00 0.00 0.00 0.01 0.01 0.03 0.08 0.16 0.22 0.30 0.39 0.50 0.64 0.66 0.61 0.53 0.47 0.44 0.39 0.37 0.33 0.32 0.32 0.34 0.34 0.29 0.24 0.22
0.00 0.00 0.00 0.00 0.00 0.00 0.00 0.00 0.00 0.00 0.00 0.00 0.00 0.00 0.00 0.00 0.00 0.01 0.01 0.01 0.02 0.02 0.04 0.09 0.14 0.19 0.30 0.47 0.56 0.54 0.51 0.50 0.52 0.53 0.51 0.48 0.46 0.42 0.40 0.39 0.36 0.28 0.21 0.17
0.00 0.00 0.00 0.00 0.00 0.00 0.00 0.00 0.00 0.00 0.00 0.00 0.00 0.00 0.00 0.00 0.00 0.00 0.01 0.01 0.01 0.02 0.03 0.06 0.11 0.17 0.29 0.41 0.49 0.50 0.49 0.55 0.60 0.61 0.59 0.57 0.54 0.45 0.40 0.34 0.27 0.21 0.15 0.10
0.00 0.00 0.00 0.00 0.00 0.00 0.00 0.00 0.00 0.00 0.00 0.00 0.00 0.00 0.00 0.00 0.00 0.00 0.01 0.01 0.02 0.02 0.03 0.07 0.11 0.16 0.24 0.33 0.41 0.43 0.45 0.50 0.52 0.55 0.59 0.56 0.48 0.39 0.30 0.22 0.17 0.12 0.08 0.05
0.00 0.00 0.00 0.00 0.00 0.00 0.00 0.00 0.00 0.00 0.00 0.00 0.00 0.00 0.00 0.00 0.00 0.00 0.00 0.01 0.02 0.03 0.05 0.08 0.11 0.14 0.19 0.27 0.35 0.37 0.37 0.37 0.37 0.36 0.32 0.29 0.25 0.20 0.17 0.13 0.11 0.08 0.05 0.04
0.00 0.00 0.00 0.00 0.00 0.00 0.00 0.00 0.00 0.00 0.00 0.00 0.00 0.00 0.00 0.00 0.01 0.01 0.02 0.02 0.03 0.04 0.07 0.11 0.14 0.17 0.22 0.27 0.29 0.28 0.24 0.20 0.17 0.16 0.17 0.16 0.14 0.12 0.11 0.09 0.08 0.06 0.04 0.03
0.00 0.00 0.00 0.00 0.00 0.00 0.00 0.00 0.00 0.00 0.00 0.00 0.00 0.00 0.01 0.01 0.01 0.03 0.04 0.06 0.07 0.09 0.11 0.16 0.20 0.25 0.28 0.28 0.26 0.20 0.14 0.10 0.09 0.09 0.09 0.08 0.07 0.09 0.08 0.07 0.05 0.03 0.02 0.01
0.00 0.00 0.00 0.00 0.00 0.00 0.00 0.00 0.00 0.00 0.00 0.00 0.00 0.00 0.01 0.02 0.02 0.03 0.04 0.08 0.11 0.12 0.18 0.24 0.27 0.27 0.25 0.20 0.17 0.13 0.11 0.09 0.08 0.07 0.06 0.06 0.06 0.06 0.05 0.04 0.03 0.03 0.03 0.02
0.00 0.00 0.00 0.00 0.00 0.00 0.00 0.00 0.00 0.00 0.00 0.00 0.00 0.01 0.01 0.01 0.02 0.05 0.08 0.11 0.12 0.19 0.28 0.28 0.27 0.22 0.17 0.13 0.11 0.10 0.08 0.07 0.07 0.06 0.05 0.05 0.05 0.05 0.04 0.04 0.04 0.04 0.03 0.03
0.00 0.00 0.00 0.00 0.00 0.00 0.00 0.00 0.00 0.00 0.00 0.00 0.00 0.01 0.01 0.01 0.03 0.06 0.10 0.16 0.22 0.26 0.29 0.27 0.24 0.20 0.15 0.11 0.08 0.07 0.08 0.08 0.07 0.06 0.05 0.05 0.05 0.05 0.05 0.04 0.04 0.05 0.05 0.05
0.00 0.00 0.00 0.00 0.00 0.00 0.00 0.00 0.00 0.00 0.00 0.00 0.01 0.03 0.03 0.02 0.04 0.06 0.11 0.19 0.27 0.33 0.35 0.31 0.22 0.17 0.13 0.10 0.09 0.10 0.11 0.10 0.08 0.07 0.06 0.05 0.05 0.06 0.06 0.06 0.07 0.07 0.07 0.08
0.00 0.00 0.00 0.00 0.00 0.00 0.00 0.01 0.01 0.01 0.01 0.01 0.02 0.06 0.06 0.08 0.10 0.12 0.18 0.24 0.28 0.36 0.36 0.26 0.19 0.16 0.14 0.14 0.15 0.14 0.14 0.12 0.10 0.08 0.07 0.07 0.08 0.09 0.09 0.09 0.10 0.10 0.11 0.12
0.00 0.00 0.00 0.00 0.00 0.00 0.01 0.01 0.02 0.02 0.03 0.03 0.04 0.08 0.10 0.15 0.20 0.22 0.24 0.26 0.29 0.32 0.31 0.28 0.26 0.24 0.21 0.19 0.17 0.16 0.15 0.12 0.10 0.09 0.09 0.10 0.12 0.13 0.13 0.14 0.14 0.14 0.15 0.14
0.00 0.00 0.00 0.00 0.00 0.00 0.00 0.01 0.01 0.02 0.03 0.03 0.06 0.12 0.14 0.18 0.21 0.22 0.24 0.24 0.25 0.27 0.31 0.33 0.32 0.28 0.25 0.23 0.21 0.20 0.19 0.18 0.17 0.18 0.19 0.18 0.17 0.17 0.17 0.17 0.17 0.19 0.18 0.16
0.00 0.00 0.00 0.00 0.00 0.00 0.00 0.00 0.01 0.01 0.01 0.02 0.06 0.10 0.09 0.12 0.15 0.17 0.18 0.20 0.24 0.30 0.33 0.32 0.28 0.26 0.28 0.30 0.32 0.35 0.35 0.33 0.32 0.31 0.28 0.25 0.22 0.21 0.19 0.18 0.20 0.19 0.15 0.11
0.01 0.01 0.01 0.00 0.01 0.02 0.01 0.01 0.01 0.01 0.03 0.03 0.04 0.05 0.05 0.07 0.09 0.11 0.13 0.17 0.22 0.27 0.28 0.26 0.25 0.29 0.36 0.44 0.47 0.45 0.41 0.38 0.36 0.34 0.31 0.25 0.20 0.17 0.18 0.19 0.17 0.12 0.09 0.08
0.02 0.02 0.05 0.04 0.05 0.04 0.03 0.01 0.01 0.02 0.04 0.03 0.04 0.04 0.04 0.05 0.08 0.11 0.10 0.14 0.20 0.21 0.22 0.25 0.30 0.39 0.49 0.53 0.50 0.46 0.42 0.37 0.34 0.29 0.23 0.16 0.13 0.13 0.12 0.10 0.09 0.08 0.08 0.07
0.04 0.06 0.11 0.13 0.15 0.15 0.12 0.03 0.02 0.03 0.10 0.05 0.04 0.04 0.05 0.08 0.14 0.10 0.08 0.09 0.13 0.16 0.21 0.31 0.43 0.52 0.54 0.50 0.43 0.39 0.35 0.28 0.23 0.17 0.14 0.11 0.10 0.07 0.05 0.05 0.07 0.07 0.07 0.06
0.15 0.14 0.17 0.24 0.32 0.31 0.16 0.06 0.05 0.12 0.14 0.10 0.08 0.09 0.11 0.13 0.16 0.12 0.10 0.11 0.14 0.21 0.30 0.40 0.47 0.47 0.42 0.36 0.30 0.28 0.23 0.18 0.13 0.09 0.08 0.06 0.04 0.02 0.02 0.03 0.05 0.05 0.04 0.03
0.25 0.28 0.28 0.31 0.40 0.42 0.19 0.10 0.13 0.15 0.11 0.11 0.11 0.12 0.15 0.18 0.17 0.16 0.17 0.20 0.23 0.30 0.36 0.37 0.36 0.32 0.26 0.19 0.17 0.15 0.12 0.08 0.05 0.04 0.03 0.02 0.01 0.01 0.01 0.02 0.03 0.02 0.02 0.02
0.28 0.29 0.36 0.43 0.47 0.33 0.16 0.12 0.11 0.11 0.12 0.14 0.17 0.20 0.24 0.27 0.29 0.29 0.30 0.32 0.32 0.32 0.32 0.28 0.23 0.17 0.12 0.09 0.09 0.08 0.05 0.03 0.03 0.03 0.03 0.01 0.01 0.01 0.01 0.02 0.02 0.01 0.01 0.01
0.44 0.29 0.31 0.38 0.39 0.27 0.17 0.11 0.09 0.11 0.14 0.18 0.24 0.27 0.28 0.28 0.27 0.28 0.30 0.31 0.30 0.28 0.23 0.16 0.11 0.08 0.06 0.04 0.03 0.02 0.01 0.01 0.02 0.02 0.02 0.01 0.01 0.01 0.01 0.01 0.01 0.01 0.01 0.01
0.42 0.42 0.43 0.46 0.42 0.31 0.24 0.18 0.16 0.22 0.25 0.28 0.29 0.26 0.24 0.21 0.18 0.17 0.18 0.18 0.17 0.14 0.10 0.07 0.05 0.03 0.02 0.01 0.01 0.01 0.01 0.01 0.01 0.01 0.01 0.01 0.01 0.01 0.01 0.01 0.00 0.01 0.01 0.01
0.29 0.36 0.50 0.61 0.47 0.34 0.33 0.30 0.28 0.29 0.26 0.22 0.19 0.19 0.19 0.17 0.15 0.12 0.11 0.10 0.09 0.07 0.05 0.04 0.03 0.02 0.01 0.01 0.00 0.00 0.00 0.01 0.01 0.01 0.01 0.01 0.00 0.01 0.01 0.01 0.02 0.01 0.00 0.01

GEFSCGP_prec_meanprecacc_054.txt.gz
Total_Precipitation_Accumulation
0.00 0.00 0.00 0.00 0.00 0.00 0.00 0.00 0.00 0.00 0.00 0.00 0.00 0.00 0.00 0.00 0.00 0.00 0.01 0.01 0.02 0.06 0.15 0.30 0.54 0.78 0.96 1.31 1.22 0.86 0.54 0.37 0.32 0.33 0.32 0.37 0.39 0.37 0.36 0.35 0.31 0.30 0.30 0.31
0.00 0.00 0.00 0.00 0.00 0.00 0.00 0.00 0.00 0.00 0.00 0.00 0.00 0.00 0.00 0.00 0.00 0.00 0.00 0.01 0.02 0.06 0.14 0.23 0.40 0.52 0.54 0.62 0.72 0.74 0.70 0.58 0.53 0.59 0.66 0.80 0.81 0.72 0.63 0.56 0.52 0.54 0.57 0.53
0.00 0.00 0.00 0.00 0.00 0.00 0.00 0.00 0.00 0.00 0.00 0.00 0.00 0.00 0.00 0.00 0.00 0.00 0.00 0.01 0.01 0.03 0.08 0.16 0.22 0.30 0.40 0.51 0.66 0.69 0.66 0.65 0.70 0.81 0.89 0.99 0.99 0.95 0.86 0.75 0.74 0.72 0.65 0.58
0.00 0.00 0.00 0.00 0.00 0.00 0.00 0.00 0.00 0.00 0.00 0.00 0.00 0.00 0.00 0.00 0.00 0.01 0.01 0.01 0.02 0.02 0.04 0.09 0.14 0.20 0.30 0.48 0.59 0.60 0.62 0.72 0.88 1.07 1.17 1.22 1.21 1.09 0.97 0.88 0.78 0.66 0.54 0.46
0.00 0.00 0.00 0.00 0.00 0.00 0.00 0.00 0.00 0.00 0.00 0.00 0.00 0.00 0.00 0.00 0.00 0.00 0.01 0.01 0.01 0.02 0.03 0.07 0.12 0.18 0.30 0.44 0.54 0.60 0.66 0.87 1.12 1.28 1.31 1.30 1.18 1.00 0.88 0.72 0.60 0.50 0.41 0.34
0.00 0.00 0.00 0.00 0.00 0.00 0.00 0.00 0.00 0.00 0.00 0.00 0.00 0.00 0.00 0.00 0.00 0.00 0.01 0.01 0.02 0.03 0.04 0.08 0.12 0.17 0.27 0.38 0.51 0.60 0.74 0.97 1.13 1.22 1.29 1.25 1.12 0.94 0.75 0.57 0.45 0.36 0.29 0.24
0.00 0.00 0.00 0.00 0.00 0.00 0.00 0.00 0.00 0.00 0.00 0.00 0.00 0.00 0.00 0.00 0.01 0.01 0.01 0.02 0.03 0.03 0.06 0.10 0.14 0.18 0.26 0.39 0.53 0.67 0.83 0.97 0.99 0.97 0.94 0.89 0.81 0.69 0.55 0.45 0.35 0.28 0.22 0.18
0.00 0.00 0.00 0.00 0.00 0.00 0.00 0.00 0.00 0.00 0.00 0.00 0.00 0.00 0.01 0.01 0.02 0.02 0.03 0.03 0.04 0.05 0.08 0.13 0.18 0.23 0.31 0.41 0.49 0.58 0.65 0.69 0.71 0.68 0.67 0.65 0.58 0.50 0.42 0.31 0.22 0.17 0.12 0.10
0.00 0.00 0.00 0.00 0.00 0.00 0.00 0.00 0.00 0.00 0.00 0.00 0.00 0.00 0.01 0.01 0.02 0.03 0.05 0.07 0.09 0.10 0.14 0.19 0.24 0.30 0.38 0.43 0.44 0.43 0.41 0.38 0.38 0.37 0.35 0.30 0.25 0.23 0.21 0.16 0.10 0.08 0.06 0.05
0.00 0.00 0.00 0.00 0.00 0.00 0.00 0.00 0.00 0.00 0.00 0.00 0.00 0.00 0.01 0.02 0.03 0.04 0.06 0.10 0.12 0.14 0.20 0.27 0.30 0.33 0.33 0.29 0.26 0.23 0.21 0.21 0.21 0.20 0.16 0.14 0.12 0.10 0.09 0.07 0.06 0.06 0.05 0.04
0.00 0.00 0.00 0.00 0.00 0.00 0.00 0.00 0.00 0.00 0.00 0.00 0.00 0.01 0.01 0.02 0.03 0.06 0.10 0.13 0.14 0.21 0.30 0.31 0.31 0.27 0.22 0.17 0.15 0.14 0.13 0.12 0.11 0.10 0.08 0.07 0.07 0.06 0.05 0.05 0.05 0.05 0.05 0.05
0.00 0.00 0.00 0.00 0.00 0.00 0.00 0.00 0.00 0.00 0.00 0.00 0.00 0.01 0.01 0.02 0.04 0.08 0.12 0.18 0.25 0.28 0.32 0.29 0.27 0.23 0.17 0.13 0.10 0.09 0.09 0.09 0.08 0.07 0.06 0.06 0.06 0.05 0.05 0.05 0.05 0.05 0.06 0.07
0.00 0.00 0.00 0.00 0.00 0.00 0.00 0.00 0.00 0.00 0.00 0.00 0.01 0.04 0.03 0.03 0.06 0.09 0.13 0.21 0.29 0.36 0.38 0.33 0.24 0.18 0.14 0.11 0.09 0.10 0.12 0.11 0.09 0.07 0.06 0.05 0.06 0.06 0.07 0.07 0.08 0.08 0.09 0.10
0.00 0.00 0.00 0.00 0.00 0.00 0.00 0.01 0.01 0.01 0.01 0.01 0.02 0.06 0.08 0.10 0.12 0.15 0.22 0.26 0.31 0.39 0.38 0.28 0.21 0.17 0.15 0.14 0.15 0.15 0.14 0.12 0.10 0.08 0.07 0.07 0.08 0.10 0.11 0.11 0.12 0.13 0.14 0.15
0.00 0.00 0.00 0.00 0.00 0.00 0.01 0.01 0.02 0.03 0.03 0.03 0.04 0.09 0.12 0.18 0.23 0.25 0.27 0.29 0.31 0.34 0.32 0.28 0.26 0.24 0.22 0.20 0.18 0.16 0.15 0.13 0.10 0.10 0.10 0.12 0.14 0.16 0.17 0.17 0.17 0.18 0.19 0.17
0.00 0.00 0.00 0.00 0.00 0.00 0.01 0.01 0.01 0.02 0.03 0.04 0.06 0.14 0.17 0.22 0.25 0.27 0.27 0.26 0.27 0.28 0.31 0.33 0.32 0.29 0.25 0.23 0.22 0.21 0.20 0.20 0.19 0.21 0.24 0.23 0.22 0.22 0.22 0.22 0.22 0.23 0.21 0.19
0.01 0.01 0.01 0.00 0.00 0.00 0.01 0.01 0.01 0.01 0.02 0.03 0.07 0.11 0.12 0.16 0.18 0.20 0.21 0.22 0.25 0.30 0.34 0.33 0.28 0.27 0.29 0.31 0.33 0.37 0.37 0.35 0.35 0.35 0.33 0.30 0.27 0.26 0.25 0.22 0.24 0.22 0.18 0.14
0.02 0.01 0.01 0.01 0.01 0.03 0.01 0.02 0.02 0.03 0.05 0.06 0.07 0.07 0.08 0.10 0.13 0.15 0.16 0.20 0.24 0.29 0.29 0.27 0.26 0.29 0.36 0.44 0.49 0.47 0.44 0.42 0.40 0.38 0.35 0.30 0.24 0.22 0.21 0.22 0.20 0.14 0.10 0.08
0.03 0.04 0.06 0.05 0.05 0.05 0.05 0.03 0.03 0.05 0.06 0.05 0.07 0.07 0.08 0.08 0.11 0.12 0.12 0.16 0.21 0.22 0.23 0.26 0.31 0.40 0.50 0.54 0.52 0.48 0.45 0.41 0.38 0.34 0.27 0.20 0.16 0.16 0.14 0.11 0.09 0.08 0.08 0.07
0.05 0.07 0.14 0.15 0.16 0.16 0.14 0.05 0.04 0.07 0.12 0.08 0.07 0.07 0.08 0.10 0.16 0.11 0.08 0.10 0.13 0.16 0.22 0.32 0.44 0.53 0.56 0.52 0.45 0.41 0.37 0.31 0.26 0.20 0.16 0.13 0.11 0.08 0.05 0.05 0.07 0.07 0.07 0.06
0.16 0.16 0.18 0.25 0.33 0.33 0.17 0.08 0.08 0.15 0.16 0.14 0.12 0.12 0.13 0.14 0.17 0.13 0.10 0.11 0.14 0.21 0.30 0.41 0.48 0.47 0.43 0.37 0.31 0.29 0.25 0.20 0.14 0.10 0.08 0.07 0.05 0.03 0.02 0.03 0.05 0.05 0.04 0.03
0.27 0.30 0.31 0.33 0.41 0.43 0.20 0.12 0.16 0.18 0.12 0.13 0.13 0.14 0.16 0.19 0.17 0.16 0.17 0.20 0.23 0.30 0.37 0.38 0.36 0.32 0.26 0.20 0.18 0.16 0.13 0.08 0.05 0.04 0.04 0.03 0.01 0.01 0.01 0.02 0.03 0.02 0.02 0.02
0.29 0.30 0.39 0.46 0.50 0.35 0.18 0.13 0.13 0.13 0.14 0.15 0.17 0.21 0.25 0.28 0.29 0.29 0.30 0.32 0.33 0.32 0.32 0.29 0.23 0.18 0.12 0.09 0.09 0.08 0.06 0.03 0.03 0.03 0.03 0.01 0.01 0.01 0.01 0.02 0.02 0.01 0.01 0.01
0.45 0.30 0.32 0.39 0.40 0.29 0.18 0.12 0.10 0.12 0.14 0.18 0.24 0.28 0.28 0.28 0.27 0.28 0.31 0.32 0.31 0.28 0.23 0.16 0.11 0.08 0.06 0.04 0.03 0.02 0.01 0.01 0.02 0.03 0.02 0.01 0.01 0.01 0.01 0.01 0.01 0.01 0.01 0.01
0.43 0.42 0.44 0.47 0.43 0.32 0.25 0.18 0.17 0.22 0.25 0.28 0.29 0.26 0.24 0.22 0.19 0.18 0.18 0.19 0.17 0.14 0.10 0.07 0.05 0.04 0.02 0.01 0.01 0.01 0.01 0.01 0.02 0.02 0.01 0.01 0.01 0.01 0.01 0.01 0.00 0.01 0.01 0.01
0.31 0.37 0.51 0.61 0.47 0.35 0.33 0.30 0.29 0.29 0.26 0.22 0.19 0.19 0.20 0.19 0.15 0.13 0.12 0.10 0.09 0.07 0.05 0.04 0.03 0.02 0.01 0.01 0.00 0.00 0.00 0.01 0.01 0.01 0.01 0.01 0.01 0.01 0.01 0.02 0.02 0.01 0.00 0.01

GEFSCGP_prec_meanprecacc_060.txt.gz
Total_Precipitation_Accumulation
0.00 0.00 0.00 0.00 0.00 0.00 0.00 0.00 0.00 0.00 0.00 0.00 0.00 0.00 0.00 0.00 0.00 0.00 0.01 0.01 0.02 0.06 0.15 0.30 0.54 0.78 0.96 1.31 1.23 0.88 0.55 0.40 0.38 0.41 0.44 0.53 0.62 0.65 0.66 0.65 0.61 0.57 0.56 0.58
0.00 0.00 0.00 0.00 0.00 0.00 0.00 0.00 0.00 0.00 0.00 0.00 0.00 0.00 0.00 0.00 0.00 0.00 0.00 0.01 0.02 0.06 0.14 0.23 0.40 0.52 0.54 0.62 0.72 0.76 0.73 0.62 0.60 0.73 0.91 1.14 1.22 1.18 1.16 1.06 0.94 0.90 0.94 0.96
0.00 0.00 0.00 0.00 0.00 0.00 0.00 0.00 0.00 0.00 0.00 0.00 0.00 0.00 0.00 0.00 0.00 0.00 0.00 0.01 0.01 0.03 0.08 0.16 0.22 0.30 0.40 0.51 0.67 0.72 0.70 0.69 0.79 1.02 1.20 1.42 1.51 1.54 1.46 1.29 1.20 1.13 1.08 1.04
0.00 0.00 0.00 0.00 0.00 0.00 0.00 0.00 0.00 0.00 0.00 0.00 0.00 0.00 0.00 0.00 0.00 0.01 0.01 0.01 0.02 0.02 0.04 0.09 0.14 0.20 0.31 0.48 0.60 0.62 0.65 0.76 0.97 1.25 1.47 1.63 1.75 1.66 1.52 1.36 1.20 1.05 0.92 0.81
0.00 0.00 0.00 0.00 0.00 0.00 0.00 0.00 0.00 0.00 0.00 0.00 0.00 0.00 0.00 0.00 0.00 0.00 0.01 0.01 0.02 0.02 0.03 0.07 0.12 0.18 0.30 0.44 0.55 0.61 0.69 0.92 1.20 1.46 1.61 1.68 1.66 1.51 1.35 1.16 0.96 0.85 0.75 0.63
0.00 0.00 0.00 0.00 0.00 0.00 0.00 0.00 0.00 0.00 0.00 0.00 0.00 0.00 0.00 0.00 0.00 0.01 0.01 0.02 0.03 0.03 0.05 0.08 0.12 0.18 0.27 0.39 0.52 0.62 0.76 1.03 1.22 1.37 1.52 1.50 1.41 1.26 1.08 0.89 0.76 0.69 0.58 0.49
0.00 0.00 0.00 0.00 0.00 0.00 0.00 0.00 0.00 0.00 0.00 0.00 0.00 0.00 0.00 0.01 0.01 0.01 0.02 0.03 0.04 0.05 0.07 0.11 0.15 0.19 0.27 0.41 0.55 0.69 0.87 1.05 1.10 1.10 1.09 1.07 1.00 0.91 0.80 0.72 0.63 0.52 0.41 0.30
0.00 0.00 0.00 0.00 0.00 0.00 0.00 0.00 0.00 0.00 0.00 0.00 0.00 0.00 0.01 0.01 0.02 0.03 0.04 0.05 0.05 0.07 0.10 0.15 0.20 0.25 0.33 0.43 0.52 0.62 0.71 0.78 0.81 0.78 0.78 0.78 0.71 0.64 0.57 0.46 0.35 0.27 0.19 0.15
0.00 0.00 0.00 0.00 0.00 0.00 0.00 0.00 0.00 0.00 0.00 0.00 0.00 0.01 0.02 0.02 0.03 0.05 0.06 0.09 0.11 0.13 0.16 0.22 0.27 0.33 0.40 0.46 0.47 0.47 0.46 0.44 0.44 0.44 0.42 0.37 0.32 0.29 0.26 0.19 0.13 0.10 0.08 0.06
0.00 0.00 0.00 0.00 0.00 0.00 0.00 0.00 0.00 0.00 0.00 0.00 0.00 0.01 0.02 0.03 0.04 0.06 0.08 0.12 0.15 0.17 0.23 0.30 0.33 0.35 0.35 0.31 0.29 0.26 0.24 0.24 0.24 0.23 0.19 0.18 0.16 0.14 0.11 0.09 0.08 0.07 0.06 0.05
0.00 0.00 0.00 0.00 0.00 0.00 0.00 0.00 0.00 0.00 0.00 0.00 0.00 0.01 0.02 0.02 0.04 0.08 0.12 0.16 0.17 0.24 0.33 0.34 0.33 0.29 0.23 0.19 0.17 0.16 0.14 0.13 0.12 0.11 0.10 0.09 0.09 0.08 0.07 0.06 0.06 0.06 0.05 0.05
0.00 0.00 0.00 0.00 0.00 0.00 0.00 0.00 0.00 0.00 0.00 0.00 0.00 0.02 0.02 0.03 0.06 0.10 0.15 0.21 0.28 0.31 0.34 0.32 0.29 0.24 0.18 0.14 0.10 0.09 0.09 0.09 0.08 0.07 0.06 0.06 0.06 0.06 0.06 0.06 0.06 0.06 0.07 0.07
0.00 0.00 0.00 0.00 0.00 0.00 0.00 0.00 0.00 0.00 0.00 0.00 0.01 0.04 0.04 0.05 0.09 0.12 0.17 0.25 0.32 0.39 0.41 0.35 0.26 0.19 0.14 0.11 0.10 0.10 0.12 0.11 0.09 0.07 0.06 0.05 0.06 0.07 0.07 0.08 0.08 0.09 0.09 0.11
0.00 0.00 0.00 0.00 0.01 0.01 0.00 0.01 0.01 0.01 0.01 0.01 0.03 0.07 0.09 0.13 0.16 0.20 0.26 0.30 0.34 0.42 0.40 0.30 0.22 0.18 0.15 0.15 0.15 0.15 0.14 0.12 0.10 0.08 0.07 0.08 0.09 0.10 0.11 0.12 0.13 0.14 0.15 0.17
0.00 0.00 0.00 0.00 0.00 0.01 0.01 0.01 0.02 0.03 0.04 0.04 0.05 0.10 0.14 0.22 0.28 0.32 0.34 0.35 0.37 0.38 0.35 0.30 0.27 0.25 0.23 0.20 0.18 0.16 0.15 0.13 0.11 0.10 0.10 0.13 0.15 0.17 0.18 0.19 0.19 0.19 0.20 0.19
0.00 0.01 0.01 0.00 0.00 0.00 0.01 0.01 0.01 0.02 0.03 0.04 0.08 0.16 0.20 0.26 0.30 0.34 0.34 0.32 0.33 0.32 0.34 0.35 0.33 0.30 0.26 0.24 0.22 0.21 0.21 0.20 0.19 0.22 0.24 0.25 0.24 0.24 0.24 0.24 0.23 0.24 0.23 0.20
0.01 0.01 0.01 0.01 0.01 0.01 0.01 0.01 0.02 0.02 0.03 0.05 0.10 0.14 0.15 0.20 0.24 0.26 0.26 0.26 0.29 0.33 0.35 0.34 0.29 0.28 0.29 0.31 0.34 0.37 0.37 0.36 0.36 0.36 0.35 0.32 0.29 0.28 0.27 0.24 0.25 0.23 0.19 0.14
0.02 0.02 0.02 0.02 0.03 0.04 0.03 0.02 0.03 0.04 0.07 0.08 0.10 0.11 0.13 0.16 0.20 0.21 0.22 0.25 0.30 0.33 0.32 0.29 0.28 0.31 0.38 0.46 0.50 0.48 0.45 0.42 0.41 0.40 0.37 0.32 0.26 0.23 0.23 0.23 0.21 0.15 0.11 0.09
0.03 0.06 0.09 0.07 0.08 0.07 0.07 0.04 0.04 0.07 0.10 0.07 0.10 0.12 0.13 0.14 0.16 0.17 0.18 0.21 0.27 0.28 0.27 0.30 0.34 0.43 0.53 0.57 0.54 0.50 0.47 0.42 0.39 0.35 0.29 0.21 0.17 0.16 0.15 0.12 0.10 0.09 0.09 0.08
0.06 0.09 0.16 0.18 0.20 0.19 0.18 0.06 0.06 0.12 0.19 0.11 0.10 0.11 0.14 0.15 0.21 0.14 0.11 0.12 0.17 0.20 0.25 0.35 0.46 0.54 0.57 0.53 0.46 0.42 0.38 0.33 0.27 0.21 0.17 0.13 0.11 0.08 0.06 0.06 0.07 0.08 0.07 0.06
0.18 0.18 0.22 0.29 0.38 0.38 0.19 0.09 0.13 0.24 0.25 0.18 0.16 0.16 0.17 0.19 0.21 0.16 0.12 0.13 0.17 0.24 0.33 0.42 0.49 0.49 0.45 0.38 0.32 0.30 0.26 0.21 0.15 0.11 0.09 0.07 0.05 0.03 0.02 0.04 0.06 0.06 0.04 0.04
0.29 0.34 0.36 0.39 0.48 0.51 0.23 0.14 0.23 0.25 0.17 0.17 0.18 0.18 0.20 0.22 0.20 0.18 0.19 0.21 0.25 0.32 0.38 0.39 0.37 0.34 0.27 0.21 0.19 0.17 0.14 0.09 0.06 0.05 0.04 0.03 0.02 0.01 0.01 0.03 0.04 0.03 0.03 0.03
0.31 0.33 0.44 0.53 0.58 0.41 0.22 0.17 0.16 0.16 0.17 0.19 0.22 0.23 0.26 0.29 0.30 0.29 0.31 0.33 0.33 0.33 0.33 0.30 0.24 0.19 0.14 0.11 0.10 0.09 0.07 0.04 0.04 0.04 0.04 0.02 0.01 0.02 0.02 0.03 0.03 0.03 0.03 0.02
0.47 0.31 0.34 0.43 0.45 0.32 0.21 0.13 0.12 0.14 0.17 0.22 0.27 0.31 0.30 0.30 0.28 0.29 0.31 0.32 0.31 0.28 0.23 0.17 0.12 0.09 0.07 0.05 0.04 0.03 0.03 0.03 0.03 0.04 0.04 0.03 0.03 0.03 0.02 0.02 0.02 0.02 0.03 0.03
0.44 0.43 0.45 0.50 0.47 0.35 0.28 0.20 0.17 0.22 0.25 0.28 0.30 0.27 0.24 0.22 0.20 0.18 0.19 0.19 0.17 0.14 0.11 0.08 0.06 0.05 0.03 0.02 0.02 0.01 0.02 0.02 0.03 0.03 0.03 0.03 0.02 0.02 0.02 0.02 0.01 0.02 0.03 0.02
0.32 0.39 0.52 0.64 0.50 0.38 0.37 0.33 0.29 0.29 0.27 0.23 0.19 0.19 0.21 0.19 0.17 0.14 0.12 0.11 0.10 0.08 0.06 0.04 0.04 0.02 0.01 0.01 0.01 0.01 0.01 0.01 0.03 0.03 0.02 0.02 0.02 0.02 0.02 0.03 0.04 0.01 0.01 0.01

GEFSCGP_prec_meanprecacc_066.txt.gz
Total_Precipitation_Accumulation
0.00 0.00 0.00 0.00 0.00 0.00 0.00 0.00 0.00 0.00 0.00 0.00 0.00 0.00 0.00 0.00 0.00 0.00 0.01 0.01 0.02 0.06 0.15 0.31 0.57 0.81 1.00 1.37 1.26 0.90 0.58 0.42 0.40 0.44 0.47 0.55 0.65 0.69 0.73 0.75 0.71 0.66 0.64 0.67
0.00 0.00 0.00 0.00 0.00 0.00 0.00 0.00 0.00 0.00 0.00 0.00 0.00 0.00 0.00 0.00 0.00 0.00 0.00 0.01 0.02 0.07 0.14 0.23 0.41 0.56 0.62 0.67 0.76 0.82 0.79 0.66 0.65 0.78 0.95 1.20 1.31 1.28 1.28 1.18 1.06 1.00 1.00 1.03
0.00 0.00 0.00 0.00 0.00 0.00 0.00 0.00 0.00 0.00 0.00 0.00 0.00 0.00 0.00 0.00 0.00 0.00 0.00 0.01 0.02 0.03 0.08 0.17 0.23 0.33 0.45 0.59 0.73 0.81 0.82 0.81 0.89 1.10 1.28 1.50 1.61 1.67 1.59 1.39 1.29 1.21 1.14 1.11
0.00 0.00 0.00 0.00 0.00 0.00 0.00 0.00 0.00 0.00 0.00 0.00 0.00 0.00 0.00 0.00 0.00 0.01 0.01 0.01 0.02 0.02 0.04 0.09 0.15 0.22 0.36 0.56 0.67 0.69 0.78 0.92 1.10 1.36 1.59 1.73 1.84 1.78 1.62 1.44 1.29 1.15 1.01 0.90
0.00 0.00 0.00 0.00 0.00 0.00 0.00 0.00 0.00 0.00 0.00 0.00 0.00 0.00 0.00 0.00 0.01 0.01 0.01 0.01 0.02 0.02 0.03 0.07 0.12 0.19 0.35 0.52 0.62 0.66 0.78 1.02 1.31 1.59 1.75 1.82 1.81 1.66 1.47 1.26 1.07 0.93 0.81 0.67
0.00 0.00 0.00 0.00 0.00 0.00 0.00 0.00 0.00 0.00 0.00 0.00 0.00 0.00 0.00 0.00 0.01 0.01 0.01 0.02 0.03 0.04 0.05 0.09 0.13 0.19 0.29 0.43 0.59 0.68 0.83 1.12 1.33 1.50 1.67 1.67 1.58 1.41 1.21 1.01 0.85 0.76 0.64 0.52
0.00 0.00 0.00 0.00 0.00 0.00 0.00 0.00 0.00 0.00 0.00 0.00 0.00 0.00 0.01 0.01 0.02 0.02 0.02 0.04 0.05 0.05 0.07 0.12 0.16 0.20 0.29 0.42 0.58 0.74 0.93 1.13 1.20 1.23 1.25 1.24 1.17 1.08 0.96 0.87 0.74 0.60 0.45 0.32
0.00 0.00 0.00 0.00 0.00 0.00 0.00 0.00 0.00 0.00 0.00 0.00 0.00 0.01 0.03 0.03 0.03 0.04 0.04 0.05 0.06 0.07 0.11 0.16 0.21 0.26 0.35 0.45 0.55 0.66 0.75 0.85 0.92 0.92 0.93 0.96 0.89 0.80 0.70 0.57 0.43 0.33 0.23 0.16
0.00 0.00 0.00 0.00 0.00 0.00 0.00 0.00 0.00 0.00 0.00 0.00 0.00 0.02 0.05 0.05 0.04 0.05 0.07 0.09 0.11 0.14 0.17 0.23 0.28 0.35 0.42 0.48 0.50 0.51 0.50 0.50 0.52 0.54 0.54 0.52 0.46 0.42 0.38 0.29 0.20 0.15 0.11 0.08
0.00 0.00 0.00 0.00 0.00 0.00 0.00 0.00 0.00 0.00 0.00 0.00 0.00 0.02 0.04 0.05 0.06 0.08 0.10 0.14 0.16 0.18 0.24 0.31 0.35 0.37 0.38 0.34 0.32 0.30 0.28 0.29 0.31 0.31 0.29 0.28 0.26 0.23 0.19 0.14 0.11 0.10 0.09 0.08
0.00 0.00 0.00 0.00 0.00 0.00 0.00 0.00 0.00 0.00 0.00 0.00 0.00 0.05 0.08 0.11 0.11 0.15 0.19 0.21 0.19 0.25 0.34 0.35 0.35 0.31 0.26 0.21 0.20 0.19 0.18 0.17 0.16 0.16 0.14 0.14 0.13 0.12 0.12 0.12 0.10 0.09 0.08 0.07
0.00 0.00 0.00 0.00 0.00 0.00 0.00 0.00 0.00 0.00 0.01 0.00 0.01 0.07 0.08 0.13 0.19 0.22 0.23 0.25 0.30 0.33 0.36 0.34 0.31 0.26 0.21 0.16 0.13 0.11 0.11 0.11 0.10 0.09 0.08 0.08 0.07 0.07 0.07 0.07 0.07 0.07 0.08 0.08
0.00 0.00 0.02 0.02 0.02 0.01 0.01 0.00 0.00 0.00 0.00 0.00 0.02 0.12 0.15 0.21 0.29 0.28 0.27 0.35 0.44 0.45 0.45 0.38 0.28 0.21 0.16 0.13 0.11 0.11 0.13 0.12 0.10 0.08 0.07 0.06 0.07 0.07 0.08 0.08 0.09 0.09 0.10 0.11
0.00 0.00 0.02 0.09 0.10 0.04 0.02 0.02 0.02 0.02 0.02 0.02 0.05 0.17 0.21 0.27 0.34 0.37 0.42 0.49 0.53 0.51 0.45 0.34 0.25 0.21 0.17 0.16 0.16 0.16 0.15 0.13 0.11 0.09 0.08 0.08 0.09 0.10 0.12 0.12 0.13 0.14 0.15 0.17
0.00 0.01 0.01 0.02 0.05 0.04 0.04 0.03 0.04 0.04 0.05 0.06 0.10 0.22 0.32 0.45 0.53 0.55 0.56 0.54 0.51 0.47 0.42 0.34 0.31 0.28 0.25 0.22 0.20 0.18 0.17 0.14 0.12 0.11 0.11 0.13 0.16 0.17 0.18 0.19 0.19 0.20 0.20 0.19
0.00 0.01 0.01 0.01 0.01 0.02 0.03 0.03 0.03 0.05 0.06 0.08 0.16 0.36 0.50 0.61 0.60 0.61 0.58 0.50 0.45 0.42 0.42 0.41 0.38 0.34 0.29 0.27 0.25 0.24 0.22 0.22 0.21 0.22 0.25 0.25 0.25 0.25 0.25 0.24 0.24 0.25 0.23 0.20
0.01 0.02 0.02 0.02 0.01 0.02 0.04 0.05 0.05 0.06 0.08 0.10 0.20 0.32 0.38 0.47 0.52 0.48 0.45 0.44 0.46 0.49 0.50 0.47 0.39 0.36 0.36 0.36 0.37 0.40 0.39 0.37 0.37 0.38 0.36 0.33 0.30 0.29 0.27 0.25 0.26 0.24 0.20 0.15
0.03 0.05 0.05 0.04 0.06 0.10 0.10 0.06 0.06 0.09 0.14 0.17 0.22 0.25 0.29 0.33 0.37 0.39 0.39 0.44 0.50 0.54 0.51 0.45 0.39 0.39 0.44 0.51 0.54 0.51 0.48 0.45 0.43 0.42 0.39 0.33 0.27 0.24 0.24 0.24 0.22 0.16 0.13 0.11
0.04 0.08 0.13 0.12 0.14 0.16 0.19 0.11 0.08 0.14 0.22 0.16 0.20 0.20 0.22 0.23 0.26 0.28 0.28 0.34 0.41 0.41 0.39 0.41 0.44 0.50 0.59 0.62 0.59 0.55 0.50 0.45 0.41 0.37 0.30 0.22 0.17 0.17 0.16 0.14 0.12 0.11 0.11 0.10
0.06 0.11 0.21 0.25 0.28 0.32 0.35 0.14 0.09 0.18 0.33 0.21 0.19 0.19 0.22 0.23 0.30 0.23 0.19 0.20 0.25 0.30 0.35 0.43 0.53 0.61 0.63 0.58 0.50 0.45 0.40 0.35 0.29 0.22 0.17 0.14 0.12 0.09 0.08 0.08 0.09 0.10 0.09 0.08
0.21 0.24 0.30 0.40 0.50 0.52 0.26 0.11 0.17 0.36 0.40 0.31 0.25 0.24 0.26 0.29 0.30 0.23 0.19 0.21 0.25 0.32 0.40 0.49 0.54 0.54 0.49 0.42 0.36 0.33 0.28 0.23 0.16 0.11 0.09 0.08 0.06 0.04 0.04 0.06 0.08 0.08 0.07 0.07
0.34 0.42 0.47 0.51 0.61 0.65 0.28 0.16 0.29 0.34 0.28 0.28 0.28 0.26 0.26 0.27 0.25 0.24 0.25 0.28 0.32 0.38 0.43 0.44 0.41 0.37 0.31 0.24 0.22 0.20 0.17 0.11 0.07 0.06 0.05 0.04 0.03 0.02 0.02 0.06 0.08 0.07 0.08 0.08
0.35 0.39 0.53 0.63 0.69 0.50 0.26 0.20 0.21 0.23 0.26 0.28 0.30 0.30 0.30 0.33 0.35 0.34 0.36 0.38 0.38 0.37 0.37 0.33 0.27 0.21 0.16 0.13 0.13 0.13 0.09 0.06 0.06 0.07 0.06 0.04 0.03 0.03 0.03 0.06 0.07 0.07 0.08 0.07
0.48 0.33 0.41 0.53 0.55 0.38 0.25 0.17 0.16 0.19 0.23 0.26 0.32 0.34 0.33 0.33 0.31 0.32 0.35 0.36 0.35 0.32 0.26 0.21 0.15 0.12 0.10 0.08 0.07 0.05 0.04 0.05 0.07 0.08 0.07 0.05 0.05 0.06 0.05 0.06 0.05 0.05 0.06 0.05
0.45 0.45 0.51 0.59 0.57 0.43 0.34 0.24 0.21 0.25 0.28 0.31 0.33 0.29 0.26 0.24 0.22 0.21 0.22 0.22 0.21 0.17 0.14 0.11 0.09 0.07 0.05 0.04 0.03 0.02 0.02 0.04 0.06 0.07 0.05 0.05 0.04 0.06 0.07 0.07 0.03 0.02 0.03 0.02
0.33 0.41 0.58 0.73 0.59 0.47 0.44 0.36 0.31 0.31 0.28 0.25 0.21 0.21 0.22 0.21 0.18 0.16 0.15 0.14 0.13 0.10 0.08 0.07 0.07 0.04 0.03 0.02 0.01 0.01 0.01 0.02 0.05 0.06 0.05 0.04 0.03 0.04 0.05 0.09 0.08 0.02 0.01 0.01

GEFSCGP_prec_meanprecacc_072.txt.gz
Total_Precipitation_Accumulation
0.00 0.00 0.00 0.00 0.00 0.00 0.00 0.00 0.00 0.00 0.00 0.00 0.00 0.00 0.00 0.00 0.00 0.00 0.01 0.03 0.03 0.08 0.18 0.33 0.60 0.88 1.08 1.47 1.35 0.95 0.63 0.47 0.44 0.48 0.52 0.61 0.71 0.76 0.80 0.86 0.83 0.80 0.80 0.85
0.00 0.00 0.00 0.00 0.00 0.00 0.00 0.00 0.00 0.00 0.00 0.00 0.00 0.00 0.00 0.00 0.00 0.00 0.00 0.02 0.05 0.09 0.16 0.28 0.48 0.66 0.75 0.82 0.88 0.90 0.86 0.74 0.73 0.87 1.05 1.33 1.43 1.42 1.43 1.38 1.32 1.31 1.33 1.32
0.00 0.00 0.00 0.00 0.00 0.00 0.00 0.00 0.00 0.00 0.00 0.00 0.00 0.00 0.00 0.00 0.00 0.00 0.00 0.01 0.03 0.05 0.11 0.24 0.35 0.40 0.54 0.72 0.84 0.92 0.94 0.93 1.05 1.29 1.47 1.70 1.82 1.89 1.83 1.66 1.59 1.52 1.44 1.37
0.00 0.00 0.00 0.00 0.00 0.00 0.00 0.00 0.00 0.00 0.00 0.00 0.00 0.00 0.00 0.00 0.01 0.01 0.01 0.02 0.02 0.03 0.05 0.13 0.27 0.30 0.44 0.71 0.86 0.85 0.96 1.14 1.34 1.65 1.91 2.03 2.15 2.14 2.00 1.80 1.62 1.43 1.25 1.10
0.00 0.00 0.00 0.00 0.00 0.00 0.00 0.00 0.00 0.00 0.00 0.00 0.00 0.00 0.00 0.01 0.01 0.02 0.02 0.03 0.03 0.03 0.05 0.09 0.17 0.25 0.41 0.63 0.79 0.86 0.95 1.22 1.60 1.93 2.13 2.22 2.20 2.02 1.81 1.58 1.39 1.22 1.06 0.90
0.00 0.00 0.00 0.00 0.00 0.00 0.00 0.00 0.00 0.00 0.00 0.00 0.00 0.00 0.00 0.01 0.02 0.02 0.02 0.04 0.05 0.06 0.08 0.12 0.16 0.24 0.36 0.51 0.71 0.84 1.00 1.32 1.56 1.80 2.02 2.02 1.93 1.74 1.53 1.32 1.16 1.05 0.91 0.78
0.00 0.00 0.00 0.00 0.00 0.00 0.00 0.00 0.00 0.00 0.00 0.00 0.00 0.00 0.03 0.04 0.05 0.04 0.04 0.06 0.08 0.10 0.12 0.18 0.22 0.27 0.38 0.52 0.68 0.88 1.12 1.36 1.45 1.50 1.55 1.55 1.47 1.35 1.25 1.14 1.00 0.84 0.67 0.50
0.00 0.00 0.00 0.00 0.00 0.00 0.00 0.00 0.00 0.00 0.00 0.00 0.00 0.03 0.10 0.09 0.09 0.09 0.09 0.10 0.12 0.14 0.17 0.23 0.28 0.33 0.42 0.53 0.63 0.73 0.85 1.00 1.12 1.14 1.17 1.23 1.20 1.11 1.01 0.87 0.69 0.54 0.41 0.32
0.00 0.00 0.00 0.00 0.00 0.00 0.00 0.00 0.00 0.00 0.00 0.00 0.02 0.08 0.14 0.15 0.14 0.16 0.18 0.19 0.20 0.22 0.26 0.32 0.36 0.43 0.51 0.55 0.56 0.56 0.56 0.57 0.64 0.70 0.71 0.71 0.68 0.64 0.61 0.51 0.40 0.32 0.27 0.23
0.00 0.00 0.00 0.00 0.00 0.00 0.00 0.00 0.00 0.00 0.00 0.00 0.01 0.08 0.15 0.18 0.19 0.19 0.22 0.26 0.25 0.25 0.30 0.37 0.40 0.42 0.43 0.38 0.36 0.33 0.32 0.34 0.37 0.39 0.39 0.40 0.39 0.38 0.35 0.30 0.25 0.22 0.20 0.18
0.00 0.01 0.01 0.01 0.00 0.00 0.00 0.00 0.00 0.00 0.00 0.00 0.01 0.11 0.21 0.31 0.35 0.35 0.34 0.32 0.26 0.30 0.38 0.39 0.39 0.35 0.30 0.24 0.22 0.21 0.20 0.20 0.21 0.22 0.21 0.22 0.21 0.21 0.21 0.20 0.18 0.15 0.14 0.14
0.00 0.01 0.01 0.02 0.01 0.01 0.01 0.01 0.00 0.01 0.01 0.00 0.02 0.14 0.23 0.37 0.47 0.49 0.43 0.38 0.38 0.39 0.41 0.37 0.34 0.30 0.24 0.19 0.16 0.16 0.15 0.15 0.15 0.14 0.12 0.13 0.13 0.13 0.12 0.12 0.13 0.12 0.11 0.11
0.00 0.01 0.04 0.05 0.03 0.02 0.02 0.01 0.01 0.01 0.01 0.01 0.04 0.21 0.31 0.44 0.54 0.51 0.44 0.47 0.54 0.55 0.54 0.46 0.35 0.27 0.21 0.18 0.16 0.16 0.17 0.15 0.13 0.11 0.10 0.09 0.10 0.10 0.10 0.10 0.10 0.11 0.11 0.12
0.00 0.01 0.05 0.14 0.14 0.07 0.04 0.03 0.03 0.02 0.03 0.03 0.09 0.25 0.34 0.46 0.57 0.60 0.62 0.64 0.68 0.69 0.62 0.48 0.37 0.31 0.24 0.21 0.21 0.20 0.19 0.16 0.13 0.11 0.09 0.10 0.10 0.11 0.12 0.13 0.14 0.15 0.16 0.17
0.01 0.01 0.02 0.05 0.08 0.07 0.06 0.05 0.06 0.06 0.07 0.10 0.16 0.33 0.45 0.59 0.70 0.75 0.78 0.78 0.74 0.70 0.62 0.51 0.45 0.40 0.33 0.29 0.25 0.23 0.20 0.17 0.14 0.13 0.13 0.15 0.17 0.18 0.19 0.20 0.20 0.20 0.21 0.20
0.01 0.02 0.02 0.04 0.06 0.07 0.07 0.07 0.06 0.09 0.12 0.17 0.28 0.50 0.65 0.79 0.80 0.81 0.80 0.72 0.68 0.65 0.63 0.61 0.56 0.49 0.42 0.37 0.34 0.31 0.28 0.26 0.24 0.25 0.27 0.27 0.26 0.25 0.25 0.25 0.24 0.25 0.23 0.20
0.02 0.02 0.03 0.04 0.04 0.08 0.16 0.17 0.15 0.18 0.22 0.26 0.37 0.48 0.55 0.64 0.72 0.70 0.67 0.66 0.69 0.73 0.71 0.66 0.57 0.52 0.49 0.47 0.45 0.46 0.44 0.42 0.40 0.40 0.38 0.34 0.31 0.30 0.28 0.25 0.26 0.24 0.20 0.16
0.03 0.05 0.05 0.05 0.08 0.16 0.21 0.18 0.20 0.25 0.33 0.35 0.38 0.42 0.50 0.53 0.55 0.55 0.54 0.57 0.62 0.66 0.62 0.55 0.48 0.48 0.52 0.57 0.59 0.55 0.51 0.48 0.45 0.44 0.41 0.35 0.28 0.25 0.24 0.25 0.23 0.17 0.13 0.11
0.04 0.09 0.14 0.13 0.17 0.25 0.35 0.22 0.18 0.25 0.34 0.29 0.33 0.33 0.40 0.41 0.42 0.43 0.42 0.45 0.51 0.49 0.46 0.47 0.49 0.55 0.64 0.67 0.63 0.59 0.54 0.49 0.46 0.41 0.33 0.24 0.19 0.18 0.17 0.15 0.12 0.11 0.11 0.10
0.06 0.12 0.24 0.28 0.32 0.38 0.43 0.19 0.14 0.26 0.45 0.34 0.34 0.33 0.34 0.35 0.41 0.35 0.29 0.28 0.32 0.36 0.41 0.48 0.58 0.65 0.67 0.61 0.52 0.47 0.43 0.36 0.30 0.23 0.18 0.15 0.13 0.09 0.08 0.08 0.09 0.10 0.09 0.08
0.22 0.25 0.33 0.44 0.55 0.58 0.30 0.13 0.20 0.43 0.48 0.40 0.36 0.35 0.35 0.37 0.37 0.29 0.25 0.26 0.30 0.36 0.44 0.52 0.57 0.56 0.51 0.43 0.37 0.34 0.29 0.24 0.17 0.12 0.10 0.08 0.06 0.04 0.04 0.06 0.09 0.08 0.07 0.07
0.35 0.44 0.49 0.54 0.64 0.69 0.30 0.17 0.31 0.39 0.33 0.32 0.32 0.31 0.30 0.29 0.27 0.27 0.29 0.31 0.35 0.41 0.46 0.46 0.43 0.39 0.32 0.25 0.23 0.21 0.17 0.11 0.07 0.06 0.05 0.04 0.03 0.02 0.03 0.06 0.08 0.08 0.08 0.08
0.36 0.40 0.54 0.65 0.72 0.54 0.28 0.23 0.25 0.29 0.30 0.30 0.31 0.31 0.31 0.34 0.36 0.37 0.39 0.41 0.40 0.39 0.38 0.34 0.28 0.22 0.17 0.14 0.15 0.13 0.10 0.06 0.06 0.07 0.07 0.04 0.03 0.03 0.04 0.06 0.08 0.07 0.08 0.07
0.49 0.33 0.42 0.56 0.60 0.43 0.28 0.22 0.21 0.23 0.25 0.27 0.33 0.34 0.33 0.34 0.32 0.34 0.36 0.37 0.36 0.33 0.27 0.22 0.17 0.13 0.11 0.08 0.07 0.06 0.05 0.05 0.07 0.09 0.07 0.06 0.06 0.07 0.05 0.06 0.05 0.05 0.06 0.05
0.45 0.45 0.52 0.62 0.61 0.47 0.37 0.27 0.24 0.27 0.29 0.32 0.34 0.29 0.26 0.24 0.22 0.21 0.23 0.23 0.22 0.18 0.15 0.12 0.10 0.08 0.06 0.04 0.03 0.03 0.03 0.04 0.06 0.07 0.06 0.05 0.06 0.07 0.08 0.07 0.03 0.02 0.04 0.02
0.33 0.42 0.59 0.75 0.62 0.48 0.46 0.38 0.32 0.32 0.29 0.26 0.22 0.21 0.23 0.21 0.19 0.17 0.16 0.15 0.13 0.11 0.09 0.08 0.07 0.04 0.03 0.02 0.01 0.01 0.02 0.02 0.05 0.06 0.05 0.04 0.04 0.06 0.06 0.09 0.08 0.02 0.01 0.01